Wetbulb
31.09 26.25 22.31 24.43 25.78 24.83 23.95 23.32 21.88 24.07 27.67 26.16 24.49 24.16 28.15 30.79 28.08 26.88 27.03 27.88 29.42 30.80 33.92 33.94 34.28 34.11 33.72 33.48 32.92 33.02 32.59 33.25 33.22 32.48 31.67 32.02 31.57 33.15 34.38 36.32 38.13 39.06 40.30 39.99
25.13 21.61 26.83 28.95 28.56 26.71 24.70 18.29 17.63 24.25 27.03 25.90 23.23 23.20 27.36 27.04 26.64 27.83 28.86 29.05 29.12 29.97 30.84 32.40 33.03 32.88 32.29 31.89 31.99 31.97 32.37 32.72 32.55 32.43 32.26 32.15 31.95 32.90 34.63 36.12 36.82 38.05 39.64 40.90
22.46 26.73 29.75 28.54 26.72 25.09 23.39 19.38 17.62 21.62 24.88 23.44 20.41 20.18 23.45 27.03 28.70 29.47 29.34 29.12 28.77 29.49 29.91 30.67 31.35 31.78 31.57 30.96 30.99 31.67 31.92 32.21 32.18 32.24 32.19 32.02 32.56 32.86 33.47 35.27 35.17 37.26 38.40 39.03
23.91 29.34 28.49 26.96 25.45 25.35 18.44 25.30 25.37 22.93 15.98 11.75 20.80 11.86 21.24 23.13 24.53 27.77 28.96 27.85 27.91 28.24 29.10 29.79 30.28 30.67 30.89 31.02 30.90 30.88 31.25 31.60 32.07 32.02 30.57 29.75 29.16 28.39 31.15 32.34 34.17 35.15 36.82 37.58
22.96 25.59 25.82 23.40 26.31 26.68 22.84 25.98 24.19 19.63 14.05 12.44 12.69 9.49 19.08 21.98 23.88 24.75 26.54 28.23 27.85 27.86 28.01 28.62 29.59 30.30 30.98 30.41 29.79 29.93 30.16 30.56 30.98 30.78 30.45 29.50 28.38 29.81 31.16 32.87 32.98 34.08 36.26 37.64
22.96 28.17 26.61 26.21 27.36 26.91 25.53 19.70 17.39 13.17 6.72 4.92 5.24 10.00 16.10 20.76 22.64 23.74 26.35 27.02 28.06 28.06 27.97 28.00 28.99 29.69 29.65 29.62 29.33 29.21 29.01 29.66 30.44 30.22 29.73 28.64 27.68 27.92 29.08 30.82 31.20 32.57 34.33 36.26
20.63 23.49 26.26 27.59 24.27 25.80 21.37 10.43 6.32 7.24 4.62 9.03 -0.49 9.39 17.62 22.12 23.08 24.06 25.62 26.36 26.40 26.54 26.53 26.73 27.19 27.49 28.20 28.71 29.04 28.60 28.62 28.15 29.58 29.21 28.78 28.34 27.82 27.76 27.82 29.20 30.75 32.27 33.60 34.83
9.52 14.32 17.93 27.03 23.46 17.28 18.34 11.87 7.51 3.19 4.52 7.32 1.99 6.94 19.57 22.76 24.54 24.41 24.62 24.49 25.64 26.20 27.04 26.52 27.22 27.02 27.26 27.78 27.20 26.47 26.57 26.77 28.44 28.08 27.71 28.17 28.00 27.49 28.81 30.04 30.85 32.14 33.36 34.27
9.89 13.08 23.92 27.08 26.89 22.22 16.33 10.18 15.78 1.81 -5.68 -0.08 5.46 10.48 20.28 23.09 17.46 21.68 22.96 24.27 25.15 25.81 26.17 25.42 25.69 25.75 25.62 25.30 24.71 24.75 25.05 26.18 27.25 27.29 27.46 27.14 27.89 28.34 28.39 29.76 31.48 32.03 33.31 34.74
17.60 11.21 16.92 23.33 25.91 22.95 16.61 19.84 10.26 6.34 2.31 -0.22 4.33 -1.05 14.30 15.70 15.05 14.31 19.24 18.02 20.37 22.42 23.55 23.86 23.62 24.49 24.14 23.19 23.07 23.74 24.66 25.07 26.27 26.83 26.95 27.40 27.87 28.61 29.23 30.16 30.99 32.25 33.25 34.76
15.99 12.51 13.41 22.53 16.17 15.25 16.65 12.72 10.46 10.15 10.17 3.86 -0.54 11.11 12.99 13.71 14.42 15.77 16.82 19.54 18.14 19.30 21.31 20.92 21.77 21.38 21.33 21.34 21.34 22.12 23.67 24.44 25.63 26.62 26.49 26.86 27.49 28.00 29.11 30.33 31.79 32.90 34.14 35.22
22.95 17.26 8.12 12.99 20.31 22.64 20.43 15.35 17.37 11.88 6.60 4.36 7.69 11.42 14.37 14.67 6.87 5.33 16.19 20.43 21.36 17.91 18.97 18.23 18.68 18.83 19.31 19.10 19.63 20.21 22.83 23.42 25.62 25.96 26.39 26.83 27.05 27.53 28.34 30.14 32.14 34.04 35.09 36.98
24.04 11.64 5.35 14.97 17.07 19.80 16.21 19.35 19.21 15.30 15.62 5.91 6.67 14.96 14.67 6.49 9.66 15.53 13.26 20.21 22.81 17.26 17.90 14.69 15.85 16.51 15.87 16.82 17.08 18.65 21.17 23.25 25.01 24.95 25.48 25.83 26.58 28.28 29.81 30.73 32.40 34.68 35.66 35.66
28.92 19.52 13.47 13.78 14.13 10.94 13.12 18.07 19.97 17.61 7.72 12.67 13.52 19.36 24.83 26.63 26.11 24.47 20.90 19.62 17.94 16.23 14.33 11.61 12.46 9.84 12.04 13.35 12.53 15.65 19.12 22.91 23.82 24.06 24.10 25.15 27.14 28.75 30.57 31.60 32.13 33.39 34.53 34.19
26.39 12.68 15.83 15.24 14.85 11.02 14.46 13.28 17.96 15.20 15.52 13.04 20.42 14.80 22.88 26.47 26.68 26.40 18.74 21.91 20.29 18.07 13.41 12.49 6.47 8.36 7.81 9.12 11.01 13.87 17.35 21.75 22.28 22.15 21.31 23.70 26.62 29.14 30.59 31.13 32.01 33.42 33.35 33.08
24.20 15.42 9.65 7.09 17.89 18.09 13.80 17.49 18.03 18.37 18.13 16.04 18.89 17.94 25.68 26.72 25.85 21.09 18.61 16.80 17.34 16.76 13.89 12.98 3.47 6.41 8.40 7.55 8.49 11.63 15.97 18.64 20.66 19.30 19.85 23.57 25.49 26.98 28.06 30.09 31.04 31.62 31.51 31.48
21.53 13.72 7.97 8.55 10.14 8.05 10.18 13.76 17.94 12.64 10.98 16.24 9.54 18.55 7.64 18.90 14.77 14.71 18.27 13.31 15.81 17.40 14.33 12.25 9.05 8.81 7.51 5.41 5.33 8.50 12.25 16.00 17.97 18.34 19.65 23.55 24.88 25.03 26.36 27.81 28.35 29.13 29.84 30.49
20.91 16.06 17.36 8.80 1.89 6.46 19.47 19.02 17.66 14.36 15.99 15.62 14.78 16.15 21.19 19.19 18.32 16.04 15.32 16.42 18.20 15.32 11.44 11.85 7.57 1.78 5.29 1.93 1.08 6.09 11.78 15.06 16.60 18.98 20.12 23.31 24.32 24.53 25.02 26.36 26.55 27.07 27.83 28.28
24.95 21.74 14.84 11.22 -1.61 11.46 20.01 16.98 15.82 15.50 18.19 20.71 19.93 21.88 19.99 16.77 18.02 22.49 18.88 16.90 18.13 13.79 12.58 9.61 4.73 3.55 2.83 4.96 5.99 6.90 12.81 12.57 16.73 20.46 21.03 24.14 24.44 24.47 25.01 25.13 25.58 26.94 27.74 27.88
23.60 25.91 21.58 4.43 1.93 1.98 17.77 18.51 20.04 20.22 14.17 22.62 21.74 22.52 21.31 19.43 19.82 21.70 23.18 21.98 22.59 21.31 19.19 19.33 16.55 15.19 15.88 17.12 18.24 18.75 14.11 14.99 18.93 20.64 22.39 24.52 25.57 26.00 25.31 26.08 26.22 27.30 27.64 27.61
13.49 16.71 16.25 4.33 7.86 8.80 19.29 21.44 20.73 12.32 19.92 22.66 22.51 23.66 21.42 21.41 24.62 26.23 23.14 23.50 23.15 22.51 21.15 19.46 17.93 16.67 16.86 17.28 17.96 19.70 18.81 17.86 18.66 21.39 23.51 24.00 25.80 26.70 26.58 26.55 26.52 26.34 26.32 26.32
11.30 11.07 10.14 5.84 7.48 5.85 20.35 20.12 18.82 25.02 23.30 23.98 22.64 23.64 23.05 23.42 24.15 24.10 23.75 23.27 22.97 22.75 20.54 20.54 17.11 16.73 16.98 16.74 16.76 17.70 17.97 17.38 18.15 20.54 21.48 21.41 22.54 24.98 25.27 24.62 24.66 24.43 24.48 23.88
12.18 18.85 12.86 15.65 14.50 22.16 22.40 24.43 26.64 24.15 24.67 24.86 24.38 25.27 24.70 23.39 22.51 23.69 23.12 23.51 23.15 21.86 21.08 18.15 17.13 15.88 14.69 14.53 15.07 15.77 15.87 15.76 16.09 16.68 16.15 17.99 20.14 22.38 23.04 22.32 22.03 22.09 22.43 22.09
12.06 15.67 15.37 16.82 21.46 20.47 22.43 25.53 25.16 24.13 24.23 26.13 25.38 24.73 23.58 24.05 23.30 21.86 21.81 22.25 21.39 18.56 18.05 14.57 12.89 12.82 13.42 12.06 14.16 13.39 12.85 14.12 13.76 11.79 13.60 15.66 18.16 19.14 18.90 20.50 20.38 19.96 19.24 19.41
19.11 17.88 14.86 17.63 18.53 20.27 24.74 24.41 27.57 27.11 25.63 24.11 24.86 23.61 25.15 23.76 24.01 23.69 24.28 22.37 23.22 20.85 13.93 12.57 14.48 14.47 14.15 11.58 10.99 9.42 11.30 11.81 17.15 15.36 15.07 16.61 17.35 17.97 19.11 19.83 19.76 20.37 19.81 21.09
16.72 16.80 19.01 20.31 24.94 26.12 30.04 28.30 27.65 26.13 25.47 24.88 24.77 25.93 21.84 23.56 24.77 24.37 22.93 24.61 23.44 20.32 13.27 11.97 13.56 12.91 13.36 10.23 10.39 9.61 10.29 11.92 15.07 14.63 14.35 14.72 15.44 15.18 16.80 18.66 22.18 27.27 26.85 26.95
MSLP
1022.16 1022.66 1023.06 1023.52 1023.58 1023.80 1024.18 1024.55 1024.72 1024.20 1024.23 1024.03 1023.00 1022.17 1019.90 1019.64 1020.16 1020.22 1020.27 1020.31 1020.47 1020.72 1020.84 1021.19 1021.52 1021.80 1021.97 1022.07 1022.04 1021.84 1021.66 1021.36 1021.12 1020.78 1020.32 1019.76 1019.35 1018.98 1018.54 1018.11 1017.68 1017.03 1016.41 1016.20
1023.11 1023.50 1023.67 1023.79 1024.00 1024.35 1024.94 1025.43 1025.51 1024.95 1024.93 1024.92 1023.80 1022.00 1019.77 1019.58 1019.52 1019.61 1019.68 1020.01 1020.29 1020.69 1020.98 1021.19 1021.40 1021.58 1021.69 1021.64 1021.53 1021.44 1021.24 1021.04 1020.84 1020.60 1020.22 1019.74 1019.04 1018.46 1017.97 1017.49 1016.99 1016.61 1016.10 1015.65
1024.08 1024.16 1023.87 1024.00 1024.40 1024.90 1025.42 1025.93 1026.18 1026.46 1025.95 1025.91 1025.36 1022.67 1020.59 1019.75 1019.52 1019.33 1019.58 1019.96 1020.34 1020.63 1020.92 1021.05 1021.15 1021.18 1021.21 1021.19 1021.11 1020.97 1020.84 1020.63 1020.44 1020.05 1019.77 1019.44 1018.91 1018.17 1017.56 1016.90 1016.56 1016.08 1015.74 1015.33
1024.70 1024.31 1024.21 1024.43 1024.75 1025.21 1026.03 1026.25 1026.87 1027.51 1027.99 1028.38 1027.21 1025.24 1021.97 1020.38 1019.80 1019.36 1019.47 1020.00 1020.39 1020.69 1020.83 1020.89 1020.88 1020.87 1020.93 1020.81 1020.86 1020.73 1020.46 1020.25 1019.98 1019.71 1019.58 1019.25 1018.64 1017.85 1017.32 1016.77 1016.07 1015.56 1015.20 1014.72
1024.99 1024.72 1024.66 1024.86 1025.05 1025.51 1026.59 1027.02 1027.96 1029.01 1029.82 1030.18 1029.14 1028.20 1022.09 1020.80 1019.79 1019.31 1019.45 1019.91 1020.27 1020.55 1020.68 1020.63 1020.70 1020.67 1020.51 1020.48 1020.38 1020.26 1020.07 1019.92 1019.64 1019.44 1019.29 1018.82 1018.20 1017.60 1016.84 1016.15 1015.37 1014.86 1014.19 1013.68
1025.40 1025.17 1025.13 1025.27 1025.71 1026.15 1027.05 1028.03 1029.25 1030.34 1031.23 1031.55 1030.33 1029.07 1023.55 1021.10 1019.89 1019.64 1019.55 1019.79 1020.12 1020.32 1020.36 1020.39 1020.37 1020.40 1020.29 1020.13 1019.96 1019.86 1019.74 1019.43 1019.26 1019.00 1018.81 1018.47 1017.79 1017.06 1016.39 1015.65 1015.04 1014.38 1013.75 1013.08
1026.15 1026.00 1025.80 1025.69 1026.25 1026.92 1027.68 1029.43 1030.76 1031.72 1032.31 1031.95 1030.84 1029.58 1023.47 1020.85 1020.06 1019.91 1019.86 1019.73 1019.84 1020.05 1020.06 1020.07 1020.06 1020.02 1020.02 1019.81 1019.61 1019.66 1019.38 1019.06 1018.80 1018.52 1018.27 1017.91 1017.36 1016.74 1016.02 1015.38 1014.57 1013.84 1013.10 1012.46
1027.92 1027.08 1026.71 1026.57 1026.96 1027.84 1028.76 1029.78 1031.50 1032.63 1033.91 1032.55 1031.08 1028.39 1022.31 1020.31 1019.84 1019.78 1019.84 1019.92 1020.00 1019.98 1019.85 1019.87 1019.68 1019.69 1019.69 1019.56 1019.58 1019.49 1019.13 1018.70 1018.34 1018.13 1017.69 1017.21 1016.69 1016.15 1015.54 1014.75 1014.16 1013.46 1012.70 1012.02
1028.04 1027.83 1027.46 1027.36 1027.49 1028.40 1029.54 1030.31 1030.88 1032.57 1034.61 1033.60 1030.15 1027.08 1022.64 1020.40 1020.17 1020.14 1020.43 1020.49 1020.09 1019.93 1019.89 1019.73 1019.61 1019.58 1019.50 1019.58 1019.40 1019.25 1018.92 1018.49 1018.11 1017.71 1017.13 1016.51 1015.86 1015.32 1014.76 1014.18 1013.62 1012.86 1012.07 1011.36
1027.83 1028.37 1028.31 1028.02 1028.13 1028.80 1029.24 1030.29 1031.13 1032.06 1033.27 1032.88 1029.79 1027.90 1024.23 1022.08 1021.49 1021.36 1020.90 1020.63 1020.44 1020.11 1019.88 1019.64 1019.68 1019.48 1019.41 1019.44 1019.22 1018.98 1018.62 1018.27 1017.74 1017.19 1016.63 1015.89 1015.27 1014.67 1014.09 1013.53 1012.74 1011.96 1011.20 1010.60
1027.72 1028.53 1028.96 1028.56 1028.37 1028.38 1029.63 1030.18 1031.11 1031.66 1031.97 1032.23 1031.08 1025.14 1022.80 1022.29 1022.10 1022.13 1021.51 1020.99 1020.52 1020.33 1020.05 1019.87 1019.73 1019.66 1019.51 1019.35 1019.19 1018.87 1018.39 1017.91 1017.29 1016.67 1016.09 1015.48 1014.81 1014.13 1013.50 1012.75 1011.92 1011.11 1010.39 1009.78
1026.95 1027.89 1028.66 1028.07 1027.93 1027.87 1028.39 1028.90 1029.50 1030.42 1031.26 1031.43 1030.47 1023.92 1021.70 1022.01 1022.38 1022.27 1021.46 1020.81 1020.21 1020.28 1020.03 1020.12 1019.88 1019.65 1019.51 1019.27 1019.10 1018.68 1018.16 1017.86 1016.96 1016.43 1015.80 1015.04 1014.26 1013.55 1012.77 1011.96 1011.12 1010.41 1009.66 1008.95
1026.60 1027.96 1028.47 1028.33 1028.56 1028.27 1028.29 1028.32 1028.54 1029.02 1029.19 1029.23 1028.43 1023.09 1021.02 1021.45 1021.56 1021.13 1021.28 1020.49 1019.97 1020.11 1019.96 1020.11 1019.96 1019.89 1019.75 1019.41 1019.21 1018.66 1018.27 1017.75 1016.78 1016.21 1015.44 1014.58 1013.68 1012.79 1012.05 1011.26 1010.46 1009.75 1009.10 1008.60
1026.13 1027.31 1028.09 1028.16 1028.08 1027.97 1028.23 1027.84 1027.83 1028.01 1028.64 1026.97 1024.17 1022.05 1020.76 1020.01 1020.36 1020.23 1020.26 1019.90 1019.79 1020.03 1020.17 1020.07 1020.04 1020.22 1019.97 1019.70 1019.41 1018.91 1018.47 1017.70 1016.75 1016.05 1015.30 1014.42 1013.43 1012.52 1011.66 1010.96 1010.21 1009.57 1009.14 1008.64
1026.34 1027.66 1028.12 1027.81 1027.52 1027.76 1027.14 1027.00 1026.72 1026.63 1025.87 1025.82 1021.36 1022.51 1019.88 1019.41 1019.62 1019.34 1019.46 1019.23 1019.43 1019.46 1019.87 1019.95 1020.18 1020.43 1020.05 1019.78 1019.48 1019.03 1018.27 1017.55 1016.86 1016.07 1015.29 1014.36 1013.36 1012.47 1011.61 1010.96 1010.42 1009.84 1009.39 1008.95
1026.39 1027.53 1028.49 1028.38 1027.19 1027.08 1026.66 1025.71 1024.96 1025.13 1025.06 1024.17 1022.94 1021.63 1019.54 1018.78 1018.98 1018.99 1019.00 1019.38 1019.30 1019.03 1019.41 1019.71 1020.09 1020.31 1020.03 1019.72 1019.57 1018.93 1018.32 1017.39 1016.83 1016.15 1015.34 1014.29 1013.37 1012.64 1012.00 1011.32 1010.75 1010.26 1009.82 1009.35
1026.47 1027.46 1028.68 1028.42 1027.75 1027.09 1025.42 1022.31 1022.38 1022.84 1022.68 1022.45 1022.40 1019.95 1019.02 1018.99 1019.14 1018.62 1018.34 1018.53 1018.59 1018.35 1018.78 1019.17 1019.64 1019.70 1019.54 1019.51 1019.29 1019.03 1018.27 1017.42 1016.83 1016.24 1015.26 1014.37 1013.62 1013.02 1012.46 1011.90 1011.29 1010.81 1010.39 1009.89
1025.87 1027.00 1027.82 1028.30 1028.28 1025.90 1021.27 1020.43 1020.32 1020.68 1020.53 1020.80 1019.95 1018.98 1018.58 1018.66 1018.04 1017.61 1017.47 1017.83 1017.41 1017.64 1017.87 1018.45 1018.93 1018.98 1019.20 1018.91 1018.68 1018.46 1017.97 1017.33 1016.90 1016.23 1015.39 1014.66 1013.98 1013.45 1012.94 1012.43 1011.95 1011.57 1011.15 1010.64
1025.01 1025.93 1026.89 1027.73 1027.55 1023.10 1020.54 1019.50 1019.77 1019.83 1018.04 1017.48 1018.30 1017.85 1017.70 1017.80 1017.95 1016.29 1015.82 1016.11 1016.22 1016.47 1017.07 1017.47 1017.99 1018.51 1018.47 1018.41 1018.13 1018.02 1017.79 1017.26 1016.80 1016.28 1015.68 1015.03 1014.39 1013.89 1013.42 1013.02 1012.64 1012.21 1011.79 1011.31
1025.15 1025.08 1025.61 1026.91 1026.39 1022.95 1019.35 1018.05 1017.77 1017.89 1016.83 1015.18 1015.89 1016.27 1016.68 1017.11 1016.77 1015.42 1014.58 1014.86 1015.00 1015.22 1015.70 1016.40 1016.95 1017.45 1017.66 1017.56 1017.58 1017.43 1017.49 1017.24 1016.80 1016.44 1015.95 1015.31 1014.72 1014.31 1013.96 1013.65 1013.23 1012.91 1012.47 1012.13
1025.00 1024.87 1024.43 1025.25 1024.30 1020.81 1018.18 1017.52 1017.62 1017.28 1014.87 1013.77 1014.48 1014.87 1015.51 1015.86 1015.06 1014.18 1014.21 1014.24 1014.37 1014.54 1014.96 1015.48 1016.20 1016.54 1016.69 1017.02 1017.14 1016.82 1017.09 1017.12 1016.78 1016.37 1016.02 1015.52 1014.99 1014.57 1014.30 1014.07 1013.77 1013.47 1013.12 1012.78
1022.75 1023.55 1023.36 1023.71 1022.90 1019.50 1016.41 1017.19 1016.54 1013.71 1013.12 1013.19 1013.72 1013.79 1014.25 1014.01 1013.86 1013.65 1013.55 1013.64 1013.84 1014.03 1014.45 1014.83 1015.52 1015.85 1016.02 1016.47 1016.77 1016.60 1016.80 1016.79 1016.77 1016.38 1016.09 1015.72 1015.37 1014.93 1014.68 1014.42 1014.20 1013.90 1013.52 1013.21
1020.62 1019.09 1019.88 1019.52 1016.53 1015.07 1014.75 1013.60 1012.82 1012.91 1013.00 1012.85 1013.01 1012.87 1013.15 1013.47 1013.37 1013.06 1012.95 1012.89 1013.08 1013.25 1013.65 1014.20 1014.77 1015.23 1015.57 1015.94 1016.32 1016.46 1016.45 1016.60 1016.75 1016.55 1016.28 1015.97 1015.67 1015.37 1015.16 1014.97 1014.83 1014.63 1014.40 1014.15
1018.57 1017.94 1017.77 1017.38 1014.13 1014.19 1013.58 1012.94 1012.83 1012.90 1012.49 1012.13 1012.26 1012.47 1012.73 1012.78 1012.52 1012.50 1012.35 1012.26 1012.44 1012.59 1013.01 1013.55 1014.35 1014.78 1015.12 1015.46 1015.97 1016.13 1016.27 1016.53 1016.62 1016.65 1016.53 1016.36 1016.06 1015.89 1015.74 1015.55 1015.50 1015.40 1015.33 1015.20
1015.92 1016.50 1015.87 1013.88 1013.32 1013.17 1012.01 1011.84 1011.59 1011.44 1011.51 1011.61 1011.53 1011.71 1011.74 1011.73 1011.66 1011.58 1011.53 1011.41 1011.43 1011.62 1012.16 1012.85 1013.45 1013.81 1014.08 1014.71 1015.44 1015.91 1016.13 1016.45 1016.55 1016.67 1016.70 1016.67 1016.53 1016.37 1016.26 1016.12 1016.04 1015.96 1016.08 1015.89
1014.07 1013.69 1013.60 1011.02 1010.67 1010.95 1009.41 1009.90 1009.67 1010.46 1010.57 1010.59 1010.72 1010.53 1010.36 1010.76 1010.64 1010.53 1010.54 1010.37 1010.52 1010.82 1011.34 1012.07 1012.44 1012.92 1013.29 1014.10 1014.70 1015.42 1015.73 1016.04 1016.30 1016.64 1016.76 1016.77 1016.76 1016.75 1016.66 1016.55 1016.25 1016.06 1016.07 1016.11
Wind_Speed
4 6 1 1 1 3 5 2 3 4 2 4 5 12 24 13 8 10 10 8 6 6 5 5 4 2 4 5 5 6 8 9 7 8 8 7 8 9 10 10 13 14 11 12
7 2 1 5 3 4 4 3 5 5 1 3 7 21 18 8 5 4 2 4 4 4 5 5 4 3 4 5 5 6 7 8 8 7 8 7 9 9 10 11 13 14 14 11
5 1 3 1 1 2 1 3 2 3 7 3 8 10 6 3 3 3 3 3 3 8 8 6 5 5 4 5 6 7 9 10 9 10 8 8 9 9 9 8 10 10 13 14
3 1 2 2 1 3 1 1 1 2 5 3 6 8 8 4 7 4 5 4 6 7 6 5 5 6 5 5 5 7 9 10 10 11 10 13 11 12 10 11 11 12 15 16
5 3 2 1 0 2 1 3 3 3 4 4 5 3 10 4 6 4 4 6 7 8 8 8 7 6 6 5 6 7 8 11 10 10 12 11 13 11 10 11 15 15 13 13
3 1 2 1 3 3 4 4 5 4 4 3 3 3 8 3 5 2 2 4 6 6 8 8 7 5 6 5 6 7 8 11 10 10 13 15 16 15 13 13 12 11 10 10
5 2 3 1 2 2 4 7 5 7 6 6 1 1 14 6 5 6 7 10 7 6 7 7 8 5 5 7 7 6 8 12 11 12 14 15 16 16 17 15 11 12 9 9
4 7 2 5 2 4 2 6 7 5 3 6 2 8 9 7 5 7 8 8 8 8 6 8 8 5 6 8 8 8 9 12 12 13 14 13 14 10 10 12 11 10 10 10
4 5 1 5 2 3 2 2 3 8 2 4 3 10 14 5 6 4 5 6 7 6 7 8 7 5 6 6 7 7 10 12 13 14 12 13 13 13 12 15 13 11 12 11
4 3 1 2 2 5 5 3 5 4 2 6 7 8 8 6 6 5 4 6 8 7 9 8 6 7 4 5 6 8 8 11 13 14 11 11 13 13 12 13 14 14 13 13
5 4 5 2 4 8 1 2 5 4 3 5 4 9 10 9 7 9 9 8 9 9 11 8 9 5 6 5 6 7 9 11 12 11 12 13 13 13 12 12 13 13 13 13
4 4 3 8 0 2 3 5 4 5 5 2 2 14 0 8 5 4 11 11 11 8 9 8 8 6 5 5 6 7 10 12 10 11 12 13 13 12 12 12 12 12 12 9
6 2 3 7 3 3 3 5 4 3 3 8 5 12 4 3 5 8 11 13 12 8 10 7 6 5 5 5 7 7 9 11 10 11 12 13 12 12 12 12 11 9 8 8
5 4 7 8 7 5 4 5 7 6 4 6 16 26 21 24 18 12 9 10 10 9 9 7 6 5 5 5 6 6 9 10 10 11 11 12 11 12 10 11 10 8 7 7
3 5 3 6 6 5 7 7 11 13 10 9 27 10 25 22 19 17 7 11 11 11 7 7 5 6 6 5 5 5 7 7 8 9 9 9 10 10 10 9 8 7 7 7
4 4 2 6 7 5 7 14 20 19 15 16 22 28 27 27 16 12 11 9 12 11 9 8 4 7 8 5 5 5 7 7 8 8 8 8 9 9 9 9 8 7 7 7
7 6 3 6 4 6 9 14 14 6 6 9 8 18 3 11 8 8 11 7 11 11 8 8 6 7 6 5 5 5 7 6 6 7 7 8 8 8 9 9 10 10 10 9
7 6 4 4 4 5 8 4 6 9 8 16 10 10 13 9 10 12 11 12 12 7 7 7 6 5 6 4 4 4 5 5 5 6 6 8 8 8 8 8 9 8 8 9
6 5 3 3 5 10 7 5 8 10 9 15 18 17 9 5 5 8 5 7 8 7 5 5 5 4 4 5 5 2 4 4 5 6 7 7 7 7 7 8 8 7 7 9
4 6 5 4 4 9 6 3 5 4 8 9 14 11 7 3 5 6 4 5 7 7 5 6 6 4 5 4 3 2 2 3 5 6 7 6 6 6 7 7 7 7 6 7
5 4 14 5 7 11 12 5 4 6 10 7 10 7 8 6 7 6 4 6 5 5 7 6 6 6 6 4 4 4 2 2 4 5 5 5 5 5 5 5 5 5 5 6
11 11 7 3 6 13 10 6 9 8 1 5 7 7 8 9 9 8 9 9 8 9 7 7 7 7 6 5 4 4 4 2 3 4 4 4 4 4 4 5 5 6 6 8
5 10 10 16 14 5 12 8 14 2 4 5 5 7 8 8 8 10 9 9 9 9 7 6 8 7 5 5 5 5 3 3 1 2 3 3 4 4 4 5 5 4 6 7
5 5 5 2 10 11 10 15 8 6 11 9 8 8 6 12 10 9 9 10 8 6 8 6 7 8 7 7 6 5 5 3 3 3 1 2 3 4 4 4 4 5 5 5
6 12 7 14 2 5 11 12 16 15 12 10 12 11 14 11 13 12 11 10 10 8 5 7 10 10 9 7 7 6 6 5 4 3 2 3 3 3 4 4 3 4 3 5
7 10 10 12 9 8 19 9 11 13 13 13 12 14 11 12 15 11 11 12 9 8 5 6 10 8 8 8 7 7 6 6 6 4 3 3 3 2 3 3 4 13 12 12
Wind_Direction
14 64 71 188 38 91 122 149 251 260 7 305 255 277 283 295 238 259 260 263 246 224 196 167 175 235 259 265 281 301 307 312 322 324 320 314 306 301 296 288 284 279 271 276
21 96 138 117 85 92 71 113 274 283 210 317 331 296 292 296 268 229 266 277 235 178 184 211 233 245 269 285 302 307 306 313 315 310 305 299 302 294 292 287 283 279 272 270
134 132 139 141 112 85 201 172 265 269 329 69 319 295 323 306 311 283 251 241 205 200 203 229 246 257 294 302 310 316 310 307 308 312 307 299 294 288 283 283 292 283 281 278
144 311 160 73 216 118 320 167 59 17 45 277 24 279 300 319 305 273 273 245 238 227 237 244 262 279 278 282 289 296 299 301 306 311 299 295 292 290 289 289 280 284 282 278
254 153 146 110 315 119 154 47 64 75 96 38 344 61 270 349 324 311 265 250 252 244 238 247 250 258 280 283 294 290 294 291 293 294 293 295 290 287 291 285 289 285 280 281
188 307 51 72 58 57 117 71 43 60 93 16 250 134 278 218 203 279 244 287 286 280 255 251 260 277 284 283 277 283 284 291 291 294 288 287 285 290 288 290 287 285 280 274
348 349 335 27 94 57 74 52 332 353 8 230 268 311 246 270 251 224 275 287 284 293 287 273 271 280 284 290 299 291 299 300 303 299 291 286 284 286 284 284 279 282 284 280
111 327 29 351 91 176 76 143 152 230 266 276 14 240 252 218 208 234 252 265 288 298 290 277 274 269 291 296 302 302 307 305 305 296 289 286 286 284 282 279 279 276 277 278
123 286 332 30 63 90 240 53 161 100 74 29 251 284 287 259 274 243 257 276 269 292 309 301 297 274 284 294 299 301 305 302 297 295 293 293 293 288 284 286 279 274 273 274
200 4 268 244 113 37 136 140 47 5 347 302 286 275 243 294 268 303 283 272 281 293 306 307 291 284 303 287 295 296 295 296 296 294 293 293 295 289 282 278 277 276 275 270
135 101 288 59 199 179 87 6 47 123 127 185 294 261 214 232 228 264 286 280 269 287 294 302 296 295 287 292 301 306 310 310 304 306 306 305 295 293 285 279 279 276 279 279
193 138 217 221 133 137 157 186 161 132 244 222 175 270 200 240 242 228 274 279 284 264 283 290 290 297 300 312 313 319 326 309 315 310 309 300 294 291 290 284 283 286 283 279
183 316 2 336 12 4 211 194 165 126 97 201 164 265 271 249 299 252 253 282 293 289 306 289 296 304 302 305 317 326 323 307 324 314 312 308 302 307 307 304 303 299 305 303
161 177 185 203 207 138 197 190 209 165 152 229 229 274 282 287 294 294 288 266 278 284 289 293 297 294 291 300 304 322 314 311 323 315 315 312 314 318 317 318 323 328 332 334
167 215 224 255 238 193 224 203 213 203 211 210 273 237 272 285 291 292 269 294 299 299 304 295 282 288 289 300 313 308 284 315 316 318 312 312 321 326 332 335 338 345 352 351
183 240 112 285 274 268 265 242 233 237 236 251 260 278 269 274 287 280 271 277 286 289 282 281 270 271 269 277 292 302 305 324 320 319 311 318 340 341 343 345 352 359 359 359
164 149 119 257 337 337 293 234 215 185 207 189 185 232 334 301 283 261 278 240 267 280 275 274 253 251 260 261 259 298 301 306 328 315 316 340 346 349 354 356 8 10 10 13
163 155 177 254 7 250 244 207 177 183 208 216 265 267 263 244 263 264 238 250 275 264 265 252 232 243 250 244 267 277 288 334 329 326 333 342 350 357 357 11 16 18 18 17
164 159 178 231 201 305 288 183 162 171 272 202 219 247 259 282 282 293 228 213 236 230 236 229 221 211 235 245 245 246 331 341 338 343 340 340 348 356 1 14 12 13 23 28
242 227 201 125 197 236 241 185 157 130 281 194 182 216 221 168 335 268 254 215 241 233 204 210 209 207 229 244 217 209 301 347 346 338 327 330 348 6 8 10 12 13 19 26
165 195 216 194 241 282 247 158 153 105 240 163 181 206 166 201 214 255 274 265 248 246 211 188 191 206 223 192 213 225 201 268 298 315 319 341 357 3 12 20 16 14 25 34
165 167 192 138 209 275 170 83 186 210 251 174 191 212 211 230 267 269 262 262 246 244 214 197 196 215 212 194 201 221 226 195 296 314 333 349 0 8 15 31 26 21 23 36
230 193 184 190 207 222 200 208 214 148 215 221 205 231 218 237 248 270 269 268 255 237 216 196 197 208 201 193 201 203 217 175 321 23 358 347 25 25 20 41 36 37 30 40
260 173 219 104 197 231 214 244 254 222 235 251 239 247 233 254 256 249 260 261 251 227 218 188 179 210 214 199 198 214 170 172 151 118 53 8 49 51 38 52 55 63 51 54
192 151 181 253 217 321 253 230 244 247 237 248 258 234 245 247 257 251 264 258 255 238 190 183 198 210 212 187 192 197 180 174 157 143 131 98 76 73 73 74 97 92 113 89
186 177 191 237 148 197 257 215 225 227 232 231 233 263 238 222 244 242 249 250 249 241 178 195 209 207 201 186 190 184 181 177 159 160 161 153 122 84 73 64 65 73 79 81